| time (UTC) | temp F | wind direction | speed knots | gust knots | rain 1hr in | rain 24hr in | rain mn in | humidity % | barometer mb |
| 20260510043057 | 76 | 82 | 8.7 | 12.2 | 0.00 | 0.01 | 0.01 | 96 | 1011.1 |
| 20260510041519 | 76 | 70 | 5.2 | 11.3 | 0.00 | 0.01 | 0.01 | 96 | 1011.4 |
| 20260510040030 | 77 | 79 | 4.3 | 8.7 | 0.01 | 0.01 | 0.01 | 96 | 1011.5 |
| 20260510034513 | 77 | 99 | 4.3 | 8.7 | 0.01 | 0.01 | 0.01 | 95 | 1011.2 |
| 20260510033011 | 77 | 118 | 7.0 | 8.7 | 0.01 | 0.01 | 0.01 | 96 | 1010.8 |
| 20260510031509 | 76 | 84 | 5.2 | 10.4 | 0.01 | 0.01 | 0.01 | 96 | 1011.0 |
| 20260510030008 | 77 | 95 | 4.3 | 10.4 | 0.00 | 0.00 | 0.00 | 96 | 1011.1 |
| 20260510024505 | 77 | 115 | 7.0 | 11.3 | 0.00 | 0.00 | 0.00 | 96 | 1010.6 |
| 20260510023033 | 77 | 65 | 5.2 | 10.4 | 0.00 | 0.00 | 0.00 | 96 | 1010.8 |
| 20260510021533 | 77 | 79 | 6.1 | 11.3 | 0.00 | 0.00 | 0.00 | 96 | 1010.3 |
| 20260510020026 | 77 | 98 | 6.1 | 11.3 | 0.00 | 0.00 | 0.00 | 95 | 1009.7 |
| 20260510014523 | 78 | 109 | 7.8 | 13.9 | 0.00 | 0.00 | 0.00 | 94 | 1009.2 |
| 20260510013018 | 79 | 114 | 6.1 | 10.4 | 0.00 | 0.00 | 0.00 | 90 | 1009.0 |
| 20260510011520 | 79 | 139 | 6.1 | 8.7 | 0.00 | 0.00 | 0.00 | 90 | 1008.4 |
| 20260510010022 | 79 | 124 | 7.8 | 10.4 | 0.00 | 0.00 | 0.00 | 90 | 1007.8 |
| 20260510004515 | 80 | 113 | 6.1 | 9.6 | 0.00 | 0.00 | 0.00 | 89 | 1008.0 |
| 20260510003015 | 81 | 128 | 7.8 | 11.3 | 0.00 | 0.00 | 0.00 | 87 | 1007.8 |
| 20260510001515 | 81 | 127 | 7.0 | 10.4 | 0.00 | 0.00 | 0.00 | 87 | 1007.8 |
| 20260510000017 | 82 | 102 | 4.3 | 7.8 | 0.00 | 0.00 | 0.00 | 84 | 1007.5 |
| 20260509234514 | 82 | 89 | 4.3 | 8.7 | 0.00 | 0.00 | 0.00 | 83 | 1007.4 |
| 20260509233011 | 82 | 122 | 4.3 | 7.0 | 0.00 | 0.00 | 0.00 | 84 | 1007.3 |
| 20260509231508 | 83 | 81 | 5.2 | 7.8 | 0.00 | 0.00 | 0.00 | 83 | 1007.5 |
| 20260509230040 | 83 | 98 | 4.3 | 9.6 | 0.00 | 0.00 | 0.00 | 82 | 1007.4 |
| 20260509224537 | 82 | 89 | 4.3 | 7.0 | 0.00 | 0.00 | 0.00 | 82 | 1007.1 |
| 20260509223038 | 83 | 94 | 2.6 | 6.1 | 0.00 | 0.00 | 0.00 | 83 | 1007.2 |
| 20260509221537 | 82 | 101 | 3.5 | 7.0 | 0.00 | 0.00 | 0.00 | 84 | 1007.1 |
| 20260509220032 | 82 | 77 | 3.5 | 7.0 | 0.00 | 0.00 | 0.00 | 86 | 1007.0 |
| 20260509214532 | 81 | 105 | 4.3 | 8.7 | 0.00 | 0.00 | 0.00 | 88 | 1007.0 |
| 20260509213032 | 82 | 117 | 5.2 | 7.8 | 0.00 | 0.00 | 0.00 | 87 | 1006.9 |
| 20260509211528 | 81 | 105 | 3.5 | 7.0 | 0.00 | 0.00 | 0.00 | 89 | 1007.0 |
| 20260509210029 | 81 | 107 | 2.6 | 5.2 | 0.00 | 0.00 | 0.00 | 88 | 1007.0 |
| 20260509204525 | 81 | 109 | 2.6 | 4.3 | 0.00 | 0.00 | 0.00 | 90 | 1007.1 |
| 20260509203020 | 80 | 130 | 5.2 | 7.0 | 0.00 | 0.00 | 0.00 | 90 | 1007.2 |
| 20260509201519 | 80 | 101 | 4.3 | 7.0 | 0.00 | 0.00 | 0.00 | 91 | 1007.4 |
| 20260509200016 | 80 | 108 | 3.5 | 6.1 | 0.00 | 0.00 | 0.00 | 91 | 1007.7 |
| 20260509194515 | 80 | 102 | 4.3 | 7.8 | 0.00 | 0.00 | 0.00 | 90 | 1007.8 |
| 20260509193107 | 80 | 96 | 3.5 | 8.7 | 0.00 | 0.00 | 0.00 | 91 | 1007.8 |
| 20260509191543 | 81 | 105 | 4.3 | 8.7 | 0.00 | 0.00 | 0.00 | 90 | 1007.9 |
| 20260509190039 | 81 | 101 | 2.6 | 7.8 | 0.00 | 0.00 | 0.00 | 88 | 1007.9 |
| 20260509184545 | 83 | 141 | 1.7 | 3.5 | 0.00 | 0.01 | 0.00 | 82 | 1008.0 |
| 20260509183037 | 82 | 146 | 0.9 | 2.6 | 0.00 | 0.01 | 0.00 | 84 | 1008.4 |
| 20260509181540 | 82 | 153 | 0.9 | 1.7 | 0.00 | 0.01 | 0.00 | 87 | 1008.6 |
| 20260509180030 | 81 | 240 | 0.0 | 1.7 | 0.00 | 0.01 | 0.00 | 88 | 1009.0 |
| 20260509174525 | 79 | 239 | 0.0 | 2.6 | 0.00 | 0.02 | 0.00 | 92 | 1009.2 |
| 20260509173024 | 78 | 100 | 0.0 | 1.7 | 0.00 | 0.02 | 0.00 | 94 | 1009.6 |
| 20260509171536 | 78 | 91 | 0.0 | 2.6 | 0.00 | 0.02 | 0.00 | 95 | 1009.5 |
| 20260509170054 | 78 | 129 | 3.5 | 4.3 | 0.00 | 0.02 | 0.00 | 95 | 1009.6 |
| 20260509164553 | 78 | 103 | 2.6 | 6.1 | 0.00 | 0.02 | 0.00 | 94 | 1009.8 |
| 20260509163053 | 80 | 126 | 0.0 | 1.7 | 0.00 | 0.02 | 0.00 | 92 | 1009.6 |
| 20260509161550 | 79 | 20 | 0.0 | 3.5 | 0.00 | 0.02 | 0.00 | 94 | 1009.5 |
| 20260509160043 | 78 | 10 | 1.7 | 4.3 | 0.00 | 0.02 | 0.00 | 97 | 1009.6 |
| 20260509154543 | 76 | 94 | 0.9 | 4.3 | 0.00 | 0.02 | 0.00 | 98 | 1009.3 |
| 20260509153009 | 76 | 113 | 1.7 | 5.2 | 0.00 | 0.02 | 0.00 | 98 | 1009.1 |
| 20260509151507 | 76 | 102 | 0.0 | 6.1 | 0.00 | 0.02 | 0.00 | 97 | 1009.2 |
| 20260509150002 | 76 | 136 | 0.0 | 1.7 | 0.00 | 0.02 | 0.00 | 98 | 1009.4 |
| 20260509144709 | 76 | 146 | 0.0 | 0.9 | 0.00 | 0.02 | 0.00 | 98 | 1009.4 |
| 20260509143100 | 76 | 171 | 0.9 | 2.6 | 0.00 | 0.02 | 0.00 | 99 | 1009.5 |
| 20260509141558 | 76 | 225 | 0.0 | 0.9 | 0.00 | 0.02 | 0.00 | 99 | 1009.7 |
| 20260509140100 | 76 | 224 | 0.0 | 1.7 | 0.00 | 0.02 | 0.00 | 99 | 1009.5 |
| 20260509134553 | 75 | 21 | 0.0 | 1.7 | 0.00 | 0.02 | 0.00 | 99 | 1009.0 |
| 20260509133052 | 75 | 16 | 1.7 | 4.3 | 0.00 | 0.02 | 0.00 | 99 | 1009.6 |
| 20260509131550 | 75 | 290 | 0.0 | 1.7 | 0.00 | 0.02 | 0.00 | 99 | 1009.5 |
| 20260509130052 | 75 | 231 | 0.0 | 2.6 | 0.00 | 0.02 | 0.00 | 99 | 1009.1 |
| 20260509124603 | 74 | 360 | 0.0 | 0.9 | 0.00 | 0.02 | 0.00 | 99 | 1009.3 |
| 20260509123046 | 74 | 360 | 0.0 | 0.0 | 0.00 | 0.02 | 0.00 | 99 | 1009.5 |
| 20260509121546 | 0 | 0.0 | 0.0 | 0.00 | 0.02 | 0.00 | 1009.1 | ||
| 20260509120043 | 0 | 0.0 | 0.0 | 0.00 | 0.02 | 0.00 | 1009.4 | ||
| 20260509114533 | 0 | 0.0 | 0.0 | 0.00 | 0.02 | 0.00 | 1009.3 | ||
| 20260509113029 | 0 | 0.0 | 0.0 | 0.00 | 0.02 | 0.00 | 1009.2 | ||
| 20260509111524 | 0 | 0.0 | 0.0 | 0.00 | 0.02 | 0.00 | 1009.3 | ||
| 20260509110022 | 0 | 0.0 | 0.0 | 0.00 | 0.02 | 0.00 | 1008.8 | ||
| 20260509104529 | 0 | 0.0 | 0.0 | 0.00 | 0.02 | 0.00 | 1008.7 | ||
| 20260509103009 | 0 | 0.0 | 0.0 | 0.00 | 0.02 | 0.00 | 1008.9 | ||
| 20260509101505 | 0 | 0.0 | 0.0 | 0.00 | 0.02 | 0.00 | 1008.7 | ||
| 20260509100106 | 0 | 0.0 | 0.0 | 0.00 | 0.02 | 0.00 | 1008.7 | ||
| 20260509100002 | 0 | 0.0 | 0.0 | 0.00 | 0.02 | 0.00 | 1008.7 | ||
| 20260509094555 | 0 | 356 | 0.0 | 2.6 | 0.00 | 0.02 | 0.00 | 99 | 1008.5 |
| 20260509093053 | 74 | 360 | 0.9 | 1.7 | 0.00 | 0.02 | 0.00 | 99 | 1008.4 |
| 20260509091552 | 74 | 360 | 0.0 | 1.7 | 0.00 | 0.02 | 0.00 | 99 | 1008.1 |
| 20260509090058 | 74 | 360 | 0.9 | 2.6 | 0.00 | 0.02 | 0.00 | 99 | 1008.2 |
| 20260509084553 | 74 | 360 | 0.0 | 0.9 | 0.00 | 0.02 | 0.00 | 99 | 1008.2 |
| 20260509083048 | 74 | 360 | 0.0 | 0.9 | 0.00 | 0.02 | 0.00 | 99 | 1008.4 |
| 20260509081550 | 74 | 360 | 0.0 | 0.9 | 0.00 | 0.02 | 0.00 | 98 | 1008.4 |
| 20260509080050 | 74 | 360 | 0.0 | 0.9 | 0.00 | 0.02 | 0.00 | 99 | 1008.7 |
| 20260509074546 | 74 | 360 | 0.0 | 0.9 | 0.00 | 0.02 | 0.00 | 98 | 1008.9 |
| 20260509073043 | 74 | 360 | 0.0 | 0.0 | 0.00 | 0.02 | 0.00 | 98 | 1009.0 |
| 20260509071552 | 74 | 360 | 0.0 | 0.9 | 0.00 | 0.02 | 0.00 | 98 | 1009.0 |
| 20260509070043 | 74 | 125 | 0.0 | 0.9 | 0.00 | 0.02 | 0.00 | 98 | 1009.0 |
| 20260509064539 | 74 | 125 | 0.0 | 0.0 | 0.00 | 0.02 | 0.00 | 98 | 1008.7 |
| 20260509063039 | 74 | 125 | 0.0 | 0.9 | 0.00 | 0.02 | 0.00 | 98 | 1009.0 |
| 20260509061545 | 74 | 125 | 0.0 | 0.0 | 0.00 | 0.02 | 0.00 | 98 | 1009.2 |
| 20260509060039 | 75 | 125 | 0.0 | 0.0 | 0.00 | 0.02 | 0.00 | 98 | 1009.1 |
| 20260509054535 | 75 | 125 | 0.0 | 0.9 | 0.00 | 0.02 | 0.00 | 98 | 1009.1 |
| 20260509053035 | 75 | 125 | 0.9 | 2.6 | 0.00 | 0.02 | 0.00 | 98 | 1009.3 |
| 20260509051534 | 75 | 136 | 1.7 | 4.3 | 0.00 | 0.02 | 0.00 | 98 | 1009.3 |
| 20260509050046 | 75 | 124 | 1.7 | 3.5 | 0.00 | 0.02 | 0.00 | 98 | 1009.6 |
| 20260509044541 | 75 | 131 | 2.6 | 3.5 | 0.00 | 0.02 | 0.00 | 98 | 1009.7 |